Simultaneous Nadir Overpasses (SNOs) Predictions

Prediction of SNOs between METOP-A and TERRA Satellite Orbit:

Table of predicted SNOs for the next 14.0 days since TLE Epoch: 4/20/2012
Index Date (METOP-A) Time (METOP-A) METOP-A Lat,Lon Date (TERRA) Time (TERRA) TERRA Lat,Lon Distance(km) Time Diff (sec)
1 04/22/2012 14:35:57 81.30, 7.99 04/22/2012 14:36:30 81.31, 8.09 1.80 33
2 04/22/2012 15:26:37 -81.30, 175.48 04/22/2012 15:25:57 -81.30, 175.66 3.02 40
3 04/25/2012 10:10:20 81.30, 74.67 04/25/2012 10:10:47 81.31, 74.52 2.60 27
4 04/25/2012 11:01:00 -81.31,-117.82 04/25/2012 11:00:14 -81.30,-117.89 1.15 46
5 04/28/2012 05:44:43 81.30, 140.84 04/28/2012 05:45:03 81.30, 140.82 0.51 20
6 04/28/2012 06:35:23 -81.30, -51.63 04/28/2012 06:34:30 -81.30, -51.56 1.43 53
7 05/01/2012 01:19:06
